Location: Unspecified
(47.6578°N, 23.5640°E)
Time: 22:03:02
(UTC+02:00)

ISS - Pass Details

Date: 01 December 2017
Orbit: 402 x 407 km, 51.6° (Epoch: 13 December)

Event Time Altitude Azimuth Distance (km) Brightness Sun altitude
Rises 18:14:00 0° 239° (WSW) 2,322 1.5 -15.9°
Reaches altitude 10° 18:16:05 10° 237° (WSW) 1,464 0.2 -16.2°
Maximum altitude 18:19:21 72° 153° (SSE) 431 -3.8 -16.7°
Enters shadow 18:20:06 48° 85° (E) 537 -3.7 -16.8°
